Simultaneous Nadir Overpasses (SNOs) Predictions

Prediction of SNOs between LANDSAT-8 and METOP-B Satellite Orbit:

Table of predicted SNOs for the next 14.0 days since TLE Epoch: 3/9/2019
Index Date (LANDSAT-8) Time (LANDSAT-8) Lat,Lon (LANDSAT-8) SZA (LANDSAT-8 ) Date (METOP-B) Time (METOP-B) Lat,Lon (METOP-B) SZA (METOP-B ) Distance(km) Time Diff (sec)
1 03/11/2019 02:34:26 -81.07, 0.13 93.39 03/11/2019 02:33:20 -81.07, 0.11 93.41 0.64 66
2 03/11/2019 03:23:51 81.10, 168.18 86.66 03/11/2019 03:23:59 81.10, 168.13 86.66 0.92 8
3 03/13/2019 22:08:40 -81.07, 66.60 94.47 03/13/2019 22:07:44 -81.07, 66.50 94.50 1.84 56
4 03/13/2019 22:58:05 81.10,-125.37 85.58 03/13/2019 22:58:23 81.10,-125.49 85.57 2.11 18
5 03/16/2019 17:42:53 -81.07, 133.05 95.56 03/16/2019 17:42:07 -81.07, 132.87 95.59 3.11 46
6 03/16/2019 18:32:18 81.10, -58.94 84.49 03/16/2019 18:32:46 81.10, -59.12 84.48 3.15 28
7 03/19/2019 13:17:06 -81.09,-160.17 96.60 03/19/2019 13:16:29 -81.10,-160.02 96.60 2.51 37
8 03/19/2019 14:06:31 81.12, 7.83 83.45 03/19/2019 14:07:08 81.12, 7.99 83.48 2.68 37
9 03/22/2019 08:51:20 -81.09, -93.77 97.69 03/22/2019 08:50:53 -81.09, -93.68 97.69 1.70 27




NCC Satellite Simultaneous Nadir Overpasses (SNOs) Prediction Service
